User: anonymous   Login
Location: Zagreb
(45.8000°N, 16.0000°E)
Time: 08:15:35
(UTC+01:00)
Language:

Vanguard 1 Rocket - Orbit

View from above orbital plane
View from above orbital plane
View from above satellite
View from above satellite

Ground track
Ground track

The orbit data is extracted from the following two-line orbital elements,

1    16U 58002A   20299.82591704 +.00000038 +00000-0 +84190-4 0  9997
2    16 034.2566 138.2133 2021550 067.4202 312.7180 10.48677287472524
Epoch (UTC): 25 October 2020 19:49:19
Eccentricity: 0.2021550
inclination: 34.2566°
perigee height: 656 km
apogee height: 4221 km
right ascension of ascending node: 138.2133°
argument of perigee: 67.4202°
revolutions per day: 10.48677287
mean anomaly at epoch: 312.7180°
orbit number at epoch: 47252

The dashed part of the orbit path shows where the satellite is in the earth's shadow,  

DLR